Other Public Products
Issued by NWS Grand Forks, ND

Home | Current Version | Previous Version | Text Only | Print | Product List | Glossary On
Versions: 1 2 3 4 5 6 7 8 9 10 11 12 13 14 15 16 17 18 19 20 21 22 23 24 25 26 27 28 29 30 31 32 33 34 35 36 37 38 39 40 41 42 43 44 45 46 47 48 49 50
000
FPUS83 KFGF 290231
OPUFGF
PRAIRIE TO PINES WEATHER ROUNDUP
NATIONAL WEATHER SERVICE EASTERN NORTH DAKOTA/GRAND FORKS ND
900 PM CDT TUE JUL 28 2015

 **SATELLITE DATA USED TO AUGMENT SKY COVER AT AUTOMATED STATIONS**
 *****  WEATHER ACROSS EASTERN NORTH DAKOTA  *****

CITY           SKY/WX    TMP DP  RH WIND       PRES   REMARKS
GRAND FORKS    PTCLDY    68  51  54 SW25G36   29.60F
GRAND FORKS AF PTCLDY    68  51  55 SW21G31   29.60F
GRAND CITY NWS   N/A     68 N/A N/A SW22        N/A
BUXTON         NOT AVBL
DEVILS LAKE    CLOUDY    63  48  59 W41G59    29.51F
FARGO          CLEAR     72  50  45 SW21G30   29.75R
WAHPETON ARPT  CLEAR     68  46  45 W12       29.83S
$$

 *****  WEATHER ACROSS CENTRAL AND WESTERN NORTH DAKOTA  *****

CITY           SKY/WX    TMP DP  RH WIND       PRES   REMARKS
JAMESTOWN      PTCLDY    67  47  48 W35G46    29.75S
BISMARCK       CLEAR     66  46  48 W30G52    29.85R
MINOT          LGT RAIN  58  54  86 W29G43    29.54R FOG
MINOT AFB      DRIZZLE   59  59 100 W31G45    29.54R SQUALL
GARRISON         N/A     56  52  86 W44G62    29.71R
WILLISTON      LGT RAIN  57  50  77 W29G41    29.85R
DICKINSON      PTCLDY    63  46  54 NW18G26   29.91R
HETTINGER      CLEAR     64  41  42 W16       30.00R
$$

 *****  OTHER OBSERVATIONS NORTHEAST NORTH DAKOTA  *****

CITY           SKY/WX    TMP DP  RH WIND       PRES   REMARKS
WALHALLA       FAIR      66  54  63 MISG      29.42F
LANGDON        CLOUDY    63  54  72 SW32G52   29.44F
CAVALIER       CLOUDY    68  52  56 SW22G36   29.45F
GRAFTON        FAIR      66  52  59 SW22G35   29.54F
CANDO          MOCLDY    57  55  94 SW30G38   29.45F
FORT TOTTEN    NOT AVBL
ROLLA          MOCLDY    57  57 100 W23G33    29.38S FOG
RUGBY          NOT AVBL
 ***** THE ABOVE OBSERVATIONS ARE NON NWS ARE NOT QUALITY
        CONTROLLED AND MAY MIS-REPORT RAIN FOR SNOW...
$$

 *****  OTHER OBSERVATIONS SOUTHEAST NORTH DAKOTA *****

CITY           SKY/WX    TMP DP  RH WIND       PRES   REMARKS
COOPERSTOWN    NOT AVBL
VALLEY CITY    NOT AVBL
OAKES            N/A     68  50  52 W21G32    29.85R
GWINNER        FAIR      70  50  49 W20G30    29.83S
SHEYENNE NWR     N/A     71  49  46 W15       29.95S
BUFFALO        NOT AVBL
WYNDMERE         N/A     70  52  52 W10         N/A
 ***** THE ABOVE OBSERVATIONS ARE NON NWS ARE NOT QUALITY
       CONTROLLED AND MAY MIS-REPORT RAIN FOR SNOW...
$$

  *****  WEATHER ACROSS NORTHERN MINNESOTA  *****

CITY           SKY/WX    TMP DP  RH WIND       PRES   REMARKS
FLAG ISLAND    CLOUDY    73  57  56 S16G24    29.55F
WARROAD        CLOUDY    70  57  64 S10G16    29.58F
ROSEAU         CLOUDY    72  55  56 SW18G28   29.56F
HALLOCK        PTCLDY    66  52  59 SW22      29.51F
THF RVR FALLS  CLEAR     68  50  52 SW20G31   29.64S
HALSTAD        NOT AVBL
FOSSTON        PTCLDY    66  55  68 SW21G29   29.72R
BAUDETTE       MOCLDY    70  54  56 S14       29.64F
WASKISH        CLEAR     70  55  60 S6        29.69S
CROOKSTON      CLEAR     68  52  56 SW18G28   29.66S
$$
  *****  WEATHER ACROSS CENTRAL AND WEST MINNESOTA  *****

CITY           SKY/WX    TMP DP  RH WIND       PRES   REMARKS
BEMIDJI        CLEAR     70  53  54 SW13G21   29.74S
PARK RAPIDS    PTCLDY    72  52  49 SW16      29.79R
WADENA         CLEAR     72  52  49 W14G21    29.82R
DETROIT LAKES  PTCLDY    70  50  49 W14G23    29.81R
MOORHEAD       CLEAR     70  52  52 SW14G24   29.77S
FERGUS FALLS   CLEAR     70  52  52 W23G29    29.83R
ELBOW LAKE     FAIR      69  52  55 W14       29.86S
MORRIS MN      CLEAR     70  55  60 W10G17    29.88R
STAPLES        CLEAR     68  54  60 SW7       29.83R
WHEATON        CLEAR     70  52  52 W9G18     29.89R
$$
  *****  WEATHER ELSEWHERE ACROSS MINNESOTA  *****

CITY           SKY/WX    TMP DP  RH WIND       PRES   REMARKS
DULUTH         MOCLDY    77  69  76 SW9       29.79R
INTRNTL FALLS  MOCLDY    72  57  59 SW10G20   29.69R
ELY            PTCLDY    75  64  69 SW14      29.75R
CLOQUET        MOCLDY    75  66  73 SW7       29.80R
BRAINERD       CLEAR     72  58  61 SW13      29.82R
HIBBING        PTCLDY    75  61  61 SW9       29.77R
ALEXANDRIA     CLEAR     72  55  55 W17G24    29.87R
SAINT CLOUD    CLEAR     71  59  65 W6        29.86R
MINNEAPOLIS    PTCLDY    79  60  52 W18       29.85R
$$

  *****  WEATHER ACROSS SOUTH DAKOTA  *****

CITY           SKY/WX    TMP DP  RH WIND       PRES   REMARKS
SIOUX FALLS    PTCLDY    70  58  65 W3        29.95R
BROOKINGS      CLEAR     70  55  60 W8        29.97R
WATERTOWN      CLEAR     72  53  51 W12       29.93R
HURON          CLEAR     70  55  59 NW9       29.94R
SISSETON         N/A     71  50  47 NW16G25   29.87R
ABERDEEN       CLEAR     71  50  47 W13       29.90R
MITCHELL       CLEAR     73  52  47 W9        29.96R
PIERRE         CLEAR     74  46  36 NW20      29.99R
MOBRIDGE       CLEAR     71  47  42 W16G26    29.93R
RAPID CITY     CLEAR     66  47  50 N10       30.11R
$$

  *****  SOME WEATHER IN NEARBY STATES *****

CITY           SKY/WX    TMP DP  RH WIND       PRES   REMARKS
GLASGOW MT     MOCLDY    65  49  56 NW12      29.95R
GREAT FALLS MT CLEAR     71  32  23 W16G23    30.13R
CHEYENNE WY    CLOUDY    71  30  21 E5        30.25R
SCOTTSBLUFF NE CLEAR     71  51  49 E7        30.14R
OMAHA NE       MOCLDY    76  67  73 N10       29.92R
DES MOINES IA  TSTM      72  68  87 SE15      29.96R FOG
DAVENPORT IA   CLOUDY    78  75  90 E7        29.89F
CHICAGO IL     MOCLDY    83  72  69 SW6       29.94R
EAU CLAIRE WI  LGT RAIN  77  73  87 SW9       29.84S
LA CROSSE WI   CLOUDY    80  70  71 S9        29.87S
$$

  *****  SOME NATIONAL WEATHER *****

CITY           SKY/WX    TMP DP  RH WIND       PRES   REMARKS
LA GUARDIA NY  PTCLDY    85  65  51 S8        29.97R
RALEIGH NC     MOCLDY    79  74  84 E6        29.98F
ATLANTA GA     MOCLDY    83  70  64 NW5       29.99S
NEW ORLEANS LA PTCLDY    86  72  62 S7        29.97R HX  92
OKLAHOMA CITY  PTCLDY    81  67  62 S7        29.92R
ALBUQUERQUE NM LGT RAIN  84  48  28 S15       30.13R
SALT LAKE CITY CLEAR     75  25  15 NW10      30.19S
LOS ANGELES CA SUNNY     71  64  78 W12       29.85S
BOISE ID       SUNNY     78  27  15 W6        30.17S
SEATTLE WA     MOSUNNY   80  49  33 N8        30.19F
$$

*** WEATHER ACROSS MANITOBA...SASKATCHEWAN AND ONTARIO ***
                ***ONTARIO***

CITY           SKY/WX    TMP DP  RH WIND       PRES   REMARKS
GERALDTON      CLEAR     70  61  73 S10G17    29.81F
THUNDER BAY    PTCLDY    66  63  88 NE7       29.77S
SIOUX LOOKOUT  LGT RAIN  75  63  64 SW16G26   29.60S
TORONTO        MOCLDY    81  57  44 SE5       29.97S
BIG TROUT LK   MOCLDY    75  66  73 E3        29.52F
PICKLE LAKE    MOCLDY    70  68  94 SE14G20   29.61F
DRYDEN         PTCLDY    73  57  56 SW14G29   29.61R
KENORA         MOCLDY    72  54  53 SW20G36   29.57F
$$
                *** MANITOBA***

CITY           SKY/WX    TMP DP  RH WIND       PRES   REMARKS
BRANDON        LGT RAIN  59  57  94 W10       29.27R FOG
DAUPHIN        LGT RAIN  63  59  88 W5        29.29R
ISLAND LAKE    TSTM      70  68  94 N16       29.37S FOG
PILOT MOUND      N/A     59  54  82 SW28G41     N/A
THE PAS        CLOUDY    61  57  88 N21G35    29.42R
THOMPSON       LGT RAIN  59  57  94 NE15G33   29.45F
WINNIPEG       MOCLDY    68  54  60 S16G25    29.39F
LYNN LAKE        N/A    N/A N/A N/A MISG        N/A
CHURCHILL      LGT RAIN  55  54  94 E10G17    29.69R
GILLAM         LGT RAIN  64  61  88 NE14G21   29.49F
$$
                ***SASKATCHEWAN***

CITY           SKY/WX    TMP DP  RH WIND       PRES   REMARKS
ESTEVAN        LGT RAIN  55  54  94 NW40G55   29.62R FOG
KINDERSLEY     MOCLDY    68  48  49 NW12G20   29.90R
LLOYDMINSTER   MOSUNNY   70  48  46 NW12G18   29.88R
PRINCE ALBERT  CLOUDY    63  59  88 W3        29.71R
REGINA         LGT RAIN  55  54  94 NW30G39   29.73R



USA.gov is the U.S. government's official web portal to all federal, state and local government web resources and services.